QFA160 NVVV-YBBN

Flight info

Callsign QFA160
Flight time 2h 23m
Altitude 39000
Route 29N VLI R587 ATROP H224 TEBOT
Aircraft A21N/M-SDE2E3FGHIRWXY/LB1

Departure

Time 2026-04-24 14:19
Airport Bauerfield International Airport (NVVV)

Arrival

Time 2026-04-24 16:42
Airport Brisbane International Airport (YBBN)
Time Latitude Longitude Altitude Speed Heading
2026-04-24 14:11 -17.70053 168.31909 55 ft 0 kts 206°
2026-04-24 14:15 -17.70039 168.31922 54 ft 3 kts 259°
2026-04-24 14:15 -17.70042 168.31940 59 ft 3 kts 293°
2026-04-24 14:15 -17.70050 168.31958 57 ft 3 kts 293°
2026-04-24 14:16 -17.70057 168.31976 59 ft 3 kts 293°
2026-04-24 14:16 -17.70059 168.31981 60 ft 0 kts 293°
2026-04-24 14:17 -17.69969 168.32008 62 ft 10 kts 76°
2026-04-24 14:18 -17.69949 168.32017 55 ft 5 kts 312°
2026-04-24 14:18 -17.69947 168.32011 60 ft 0 kts 295°
2026-04-24 14:18 -17.69878 168.31865 61 ft 66 kts 297°
2026-04-24 14:18 -17.69504 168.31135 56 ft 160 kts 298°
2026-04-24 14:19 -17.69137 168.30376 363 ft 193 kts 294°
2026-04-24 14:19 -17.68716 168.28309 1133 ft 245 kts 264°
2026-04-24 14:19 -17.69125 168.26459 1606 ft 282 kts 243°
2026-04-24 14:19 -17.70077 168.24588 2688 ft 295 kts 232°
2026-04-24 14:20 -17.71254 168.22885 4420 ft 281 kts 228°
2026-04-24 14:20 -17.72462 168.21330 6219 ft 270 kts 227°
2026-04-24 14:20 -17.73673 168.19828 7672 ft 272 kts 227°
2026-04-24 14:20 -17.74917 168.18280 8830 ft 285 kts 230°
2026-04-24 14:21 -17.76197 168.16640 10016 ft 295 kts 232°
2026-04-24 14:21 -17.77516 168.14900 10873 ft 319 kts 234°
2026-04-24 14:21 -17.78937 168.12975 11202 ft 357 kts 234°
2026-04-24 14:21 -17.80520 168.10801 11467 ft 391 kts 235°
2026-04-24 14:22 -17.82206 168.08473 12142 ft 407 kts 234°
2026-04-24 14:22 -17.83925 168.06106 13291 ft 408 kts 235°
2026-04-24 14:22 -17.87410 168.01319 15262 ft 419 kts 235°
2026-04-24 14:23 -17.89195 167.98865 16126 ft 426 kts 236°
2026-04-24 14:23 -17.91005 167.96378 16999 ft 432 kts 236°
2026-04-24 14:23 -17.92841 167.93852 17803 ft 437 kts 236°
2026-04-24 14:23 -17.94674 167.91332 18471 ft 442 kts 237°
2026-04-24 14:24 -17.96550 167.88752 19047 ft 447 kts 237°
2026-04-24 14:24 -17.98441 167.86149 19597 ft 450 kts 237°
2026-04-24 14:24 -18.00348 167.83524 20129 ft 453 kts 237°
2026-04-24 14:24 -18.02264 167.80886 20640 ft 456 kts 237°
2026-04-24 14:25 -18.04198 167.78222 21148 ft 460 kts 237°
2026-04-24 14:25 -18.06136 167.75551 21713 ft 461 kts 237°
2026-04-24 14:25 -18.08085 167.72864 22210 ft 463 kts 237°
2026-04-24 14:25 -18.10019 167.70195 22642 ft 467 kts 237°
2026-04-24 14:26 -18.11989 167.67476 23071 ft 470 kts 237°
2026-04-24 14:26 -18.13971 167.64738 23475 ft 472 kts 237°
2026-04-24 14:26 -18.15967 167.61980 23810 ft 475 kts 237°
2026-04-24 14:26 -18.17970 167.59212 24111 ft 477 kts 237°
2026-04-24 14:27 -18.19983 167.56429 24407 ft 479 kts 237°
2026-04-24 14:27 -18.22001 167.53638 24721 ft 480 kts 237°
2026-04-24 14:27 -18.24026 167.50837 25006 ft 482 kts 237°
2026-04-24 14:27 -18.26060 167.48021 25295 ft 485 kts 237°
2026-04-24 14:28 -18.28103 167.45191 25592 ft 486 kts 237°
2026-04-24 14:28 -18.30120 167.42398 26046 ft 484 kts 237°
2026-04-24 14:28 -18.32149 167.39588 26554 ft 481 kts 237°
2026-04-24 14:28 -18.34169 167.36790 27055 ft 480 kts 237°
2026-04-24 14:29 -18.36184 167.33994 27560 ft 479 kts 237°
2026-04-24 14:29 -18.38193 167.31206 28136 ft 477 kts 238°
2026-04-24 14:29 -18.40192 167.28430 28682 ft 475 kts 238°
2026-04-24 14:29 -18.42188 167.25657 29153 ft 475 kts 238°
2026-04-24 14:30 -18.43508 167.23821 29432 ft 475 kts 238°
2026-04-24 14:30 -18.46144 167.20155 30036 ft 473 kts 238°
2026-04-24 14:30 -18.48127 167.17396 30456 ft 472 kts 238°
2026-04-24 14:30 -18.50109 167.14637 30817 ft 471 kts 238°
2026-04-24 14:31 -18.52087 167.11883 31157 ft 472 kts 238°
2026-04-24 14:31 -18.54065 167.09127 31520 ft 471 kts 238°
2026-04-24 14:31 -18.56041 167.06373 31890 ft 471 kts 238°
2026-04-24 14:31 -18.58016 167.03619 32264 ft 471 kts 238°
2026-04-24 14:32 -18.59991 167.00865 32649 ft 470 kts 238°
2026-04-24 14:32 -18.61932 166.98156 33003 ft 470 kts 238°
2026-04-24 14:32 -18.63901 166.95407 33356 ft 469 kts 238°
2026-04-24 14:32 -18.65868 166.92659 33709 ft 469 kts 238°
2026-04-24 14:33 -18.67832 166.89917 34155 ft 466 kts 238°
2026-04-24 14:33 -18.69780 166.87198 34583 ft 463 kts 238°
2026-04-24 14:33 -18.71714 166.84493 34877 ft 463 kts 239°
2026-04-24 14:33 -18.73659 166.81769 35056 ft 467 kts 239°
2026-04-24 14:34 -18.75614 166.79028 35293 ft 468 kts 239°
2026-04-24 14:34 -18.77570 166.76287 35613 ft 467 kts 239°
2026-04-24 14:34 -18.79494 166.73594 35942 ft 465 kts 239°
2026-04-24 14:34 -18.81441 166.70867 36247 ft 465 kts 239°
2026-04-24 14:35 -18.83387 166.68138 36456 ft 467 kts 239°
2026-04-24 14:35 -18.87323 166.62608 36656 ft 475 kts 239°
2026-04-24 14:35 -18.89308 166.59820 36928 ft 474 kts 239°
2026-04-24 14:36 -18.91288 166.57041 37242 ft 473 kts 239°
2026-04-24 14:36 -18.93267 166.54264 37529 ft 473 kts 239°
2026-04-24 14:36 -18.95213 166.51531 37801 ft 472 kts 239°
2026-04-24 14:36 -18.97188 166.48754 38136 ft 471 kts 240°
2026-04-24 14:37 -18.99149 166.45999 38541 ft 468 kts 241°
2026-04-24 14:37 -19.01097 166.43259 38809 ft 467 kts 241°
2026-04-24 14:37 -19.03045 166.40516 39001 ft 465 kts 241°
2026-04-24 14:38 -19.06925 166.35045 39002 ft 466 kts 241°
2026-04-24 14:38 -19.10786 166.29594 39000 ft 466 kts 241°
2026-04-24 14:39 -19.14670 166.24110 39007 ft 466 kts 241°
2026-04-24 14:39 -19.18555 166.18621 39010 ft 466 kts 241°
2026-04-24 14:40 -19.22437 166.13132 39016 ft 466 kts 241°
2026-04-24 14:40 -19.26313 166.07646 39037 ft 465 kts 241°
2026-04-24 14:41 -19.30166 166.02185 39014 ft 467 kts 242°
2026-04-24 14:41 -19.34051 165.96674 39014 ft 467 kts 242°
2026-04-24 14:42 -19.37282 165.92090 39010 ft 467 kts 242°
2026-04-24 14:42 -19.41824 165.85639 39012 ft 467 kts 242°
2026-04-24 14:43 -19.45681 165.80155 39006 ft 467 kts 242°
2026-04-24 14:43 -19.49562 165.74630 39014 ft 469 kts 242°
2026-04-24 14:44 -19.53458 165.69080 39014 ft 469 kts 242°
2026-04-24 14:44 -19.57355 165.63524 39028 ft 469 kts 242°
2026-04-24 14:45 -19.61228 165.57998 39014 ft 470 kts 242°
2026-04-24 14:45 -19.65134 165.52418 39015 ft 470 kts 242°
2026-04-24 14:46 -19.69037 165.46838 39014 ft 470 kts 242°
2026-04-24 14:46 -19.72919 165.41283 39009 ft 470 kts 242°
2026-04-24 14:47 -19.76161 165.36640 39020 ft 470 kts 242°
2026-04-24 14:47 -19.80715 165.30111 39016 ft 470 kts 242°
2026-04-24 14:48 -19.84609 165.24523 39014 ft 470 kts 242°
2026-04-24 14:48 -19.88471 165.18976 39024 ft 470 kts 243°
2026-04-24 14:49 -19.92367 165.13374 39024 ft 470 kts 243°
2026-04-24 14:49 -19.96255 165.07779 39028 ft 470 kts 243°
2026-04-24 14:50 -20.00138 165.02185 39024 ft 470 kts 243°
2026-04-24 14:50 -20.04018 164.96591 39024 ft 470 kts 243°
2026-04-24 14:51 -20.07872 164.91029 39025 ft 470 kts 243°
2026-04-24 14:51 -20.11753 164.85421 39026 ft 470 kts 243°
2026-04-24 14:52 -20.15608 164.79849 39037 ft 469 kts 244°
2026-04-24 14:52 -20.19481 164.74243 39024 ft 470 kts 244°
2026-04-24 14:53 -20.23360 164.68623 39029 ft 469 kts 244°
2026-04-24 14:53 -20.27224 164.63022 39024 ft 468 kts 244°
2026-04-24 14:54 -20.31060 164.57453 39024 ft 468 kts 244°
2026-04-24 14:54 -20.34918 164.51847 39035 ft 468 kts 244°
2026-04-24 14:55 -20.38126 164.47182 39024 ft 468 kts 245°
2026-04-24 14:55 -20.42608 164.40657 39023 ft 468 kts 244°
2026-04-24 14:56 -20.46452 164.35059 39037 ft 467 kts 245°
2026-04-24 14:56 -20.50259 164.29509 39028 ft 466 kts 245°
2026-04-24 14:57 -20.54087 164.23919 39024 ft 465 kts 245°
2026-04-24 14:57 -20.57903 164.18341 39019 ft 465 kts 245°
2026-04-24 14:58 -20.61716 164.12763 39026 ft 465 kts 245°
2026-04-24 14:58 -20.65531 164.07177 39033 ft 465 kts 245°
2026-04-24 14:59 -20.69346 164.01586 39023 ft 465 kts 245°
2026-04-24 14:59 -20.73140 163.96019 39021 ft 466 kts 245°
2026-04-24 15:00 -20.76958 163.90411 39027 ft 466 kts 245°
2026-04-24 15:00 -20.80771 163.84806 39033 ft 466 kts 245°
2026-04-24 15:01 -20.84568 163.79221 39032 ft 466 kts 245°
2026-04-24 15:01 -20.88374 163.73617 39031 ft 466 kts 245°
2026-04-24 15:02 -20.91539 163.68950 39025 ft 466 kts 245°
2026-04-24 15:02 -20.95352 163.63325 39033 ft 466 kts 245°
2026-04-24 15:03 -20.99139 163.57732 39059 ft 465 kts 245°
2026-04-24 15:03 -21.02940 163.52115 39028 ft 464 kts 245°
2026-04-24 15:04 -21.06705 163.46544 39030 ft 464 kts 245°
2026-04-24 15:04 -21.10490 163.40936 39032 ft 464 kts 245°
2026-04-24 15:05 -21.14272 163.35326 39027 ft 464 kts 245°
2026-04-24 15:05 -21.18036 163.29740 39036 ft 463 kts 245°
2026-04-24 15:06 -21.21801 163.24146 39034 ft 462 kts 245°
2026-04-24 15:06 -21.25569 163.18544 39032 ft 462 kts 245°
2026-04-24 15:07 -21.29291 163.13004 39036 ft 460 kts 245°
2026-04-24 15:07 -21.33033 163.07431 39041 ft 458 kts 245°
2026-04-24 15:08 -21.36749 163.01886 39038 ft 457 kts 245°
2026-04-24 15:08 -21.40433 162.96377 39037 ft 457 kts 245°
2026-04-24 15:09 -21.44127 162.90842 39041 ft 454 kts 244°
2026-04-24 15:09 -21.47802 162.85332 39039 ft 452 kts 245°
2026-04-24 15:10 -21.51454 162.79846 39043 ft 451 kts 245°
2026-04-24 15:10 -21.55081 162.74393 39059 ft 450 kts 245°
2026-04-24 15:11 -21.58712 162.68932 39043 ft 448 kts 245°
2026-04-24 15:11 -21.62339 162.63470 39042 ft 448 kts 245°
2026-04-24 15:12 -21.65928 162.58059 39050 ft 448 kts 245°
2026-04-24 15:12 -21.71354 162.49864 39045 ft 449 kts 245°
2026-04-24 15:13 -21.74981 162.44386 39045 ft 449 kts 245°
2026-04-24 15:13 -21.78614 162.38892 39051 ft 449 kts 245°
2026-04-24 15:14 -21.82213 162.33443 39065 ft 450 kts 246°
2026-04-24 15:14 -21.85873 162.27882 39051 ft 458 kts 246°
2026-04-24 15:15 -21.89562 162.22287 39065 ft 458 kts 246°
2026-04-24 15:15 -21.93256 162.16687 39063 ft 458 kts 246°
2026-04-24 15:16 -21.96938 162.11094 39051 ft 457 kts 246°
2026-04-24 15:16 -22.00618 162.05493 39062 ft 457 kts 246°
2026-04-24 15:17 -22.04270 161.99929 39064 ft 457 kts 246°
2026-04-24 15:17 -22.07943 161.94328 39060 ft 457 kts 246°
2026-04-24 15:18 -22.11616 161.88719 39065 ft 457 kts 246°
2026-04-24 15:18 -22.15261 161.83150 39064 ft 457 kts 246°
2026-04-24 15:19 -22.18928 161.77539 39064 ft 457 kts 246°
2026-04-24 15:19 -22.22598 161.71920 39064 ft 457 kts 246°
2026-04-24 15:20 -22.26267 161.66296 39064 ft 457 kts 246°
2026-04-24 15:20 -22.29908 161.60709 39070 ft 457 kts 246°
2026-04-24 15:21 -22.33564 161.55092 39077 ft 456 kts 246°
2026-04-24 15:21 -22.37210 161.49490 39072 ft 454 kts 246°
2026-04-24 15:22 -22.40839 161.43903 39076 ft 453 kts 246°
2026-04-24 15:23 -22.46252 161.35556 39072 ft 453 kts 246°
2026-04-24 15:23 -22.51674 161.27182 39079 ft 453 kts 246°
2026-04-24 15:25 -22.60075 161.14185 39082 ft 452 kts 246°
2026-04-24 15:26 -22.69678 160.99290 39084 ft 452 kts 246°
2026-04-24 15:27 -22.80453 160.82529 39086 ft 450 kts 245°
2026-04-24 15:29 -22.91165 160.65806 39092 ft 450 kts 246°
2026-04-24 15:31 -23.03625 160.46296 39094 ft 447 kts 245°
2026-04-24 15:33 -23.17732 160.24105 39097 ft 447 kts 245°
2026-04-24 15:34 -23.26539 160.10211 39103 ft 445 kts 245°
2026-04-24 15:35 -23.35294 159.96355 39107 ft 445 kts 245°
2026-04-24 15:36 -23.38803 159.90791 39112 ft 445 kts 245°
2026-04-24 15:36 -23.44049 159.82463 39112 ft 444 kts 244°
2026-04-24 15:37 -23.47536 159.76922 39113 ft 442 kts 244°
2026-04-24 15:37 -23.50994 159.71418 39113 ft 442 kts 244°
2026-04-24 15:38 -23.54470 159.65880 39110 ft 442 kts 244°
2026-04-24 15:38 -23.57946 159.60335 39112 ft 442 kts 244°
2026-04-24 15:39 -23.61393 159.54831 39127 ft 442 kts 244°
2026-04-24 15:39 -23.64860 159.49289 39112 ft 441 kts 244°
2026-04-24 15:40 -23.68318 159.43755 39115 ft 441 kts 244°
2026-04-24 15:40 -23.71770 159.38221 39117 ft 441 kts 244°
2026-04-24 15:41 -23.75215 159.32693 39116 ft 440 kts 244°
2026-04-24 15:41 -23.78646 159.27182 39117 ft 440 kts 244°
2026-04-24 15:42 -23.82087 159.21649 39118 ft 440 kts 244°
2026-04-24 15:42 -23.85531 159.16104 39119 ft 440 kts 244°
2026-04-24 15:43 -23.88953 159.10590 39120 ft 439 kts 244°
2026-04-24 15:43 -23.92382 159.05057 39122 ft 439 kts 244°
2026-04-24 15:44 -23.95813 158.99515 39122 ft 439 kts 244°
2026-04-24 15:44 -23.99224 158.94000 39122 ft 439 kts 244°
2026-04-24 15:45 -24.02648 158.88458 39130 ft 439 kts 244°
2026-04-24 15:45 -24.06068 158.82915 39135 ft 439 kts 243°
2026-04-24 15:46 -24.09482 158.77376 39130 ft 439 kts 243°
2026-04-24 15:46 -24.12898 158.71828 39133 ft 439 kts 243°
2026-04-24 15:47 -24.16299 158.66298 39132 ft 440 kts 243°
2026-04-24 15:47 -24.19714 158.60739 39132 ft 440 kts 243°
2026-04-24 15:48 -24.23137 158.55160 39138 ft 440 kts 243°
2026-04-24 15:48 -24.26548 158.49596 39138 ft 440 kts 243°
2026-04-24 15:49 -24.29940 158.44056 39143 ft 440 kts 243°
2026-04-24 15:49 -24.32795 158.39388 39143 ft 440 kts 243°
2026-04-24 15:50 -24.36187 158.33836 39143 ft 440 kts 244°
2026-04-24 15:50 -24.39597 158.28248 39146 ft 441 kts 244°
2026-04-24 15:51 -24.43008 158.22652 39145 ft 441 kts 244°
2026-04-24 15:51 -24.46409 158.17067 39148 ft 440 kts 243°
2026-04-24 15:52 -24.49791 158.11509 39152 ft 439 kts 243°
2026-04-24 15:52 -24.53179 158.05931 39152 ft 439 kts 243°
2026-04-24 15:53 -24.56567 158.00347 39151 ft 439 kts 243°
2026-04-24 15:53 -24.59950 157.94764 39155 ft 439 kts 243°
2026-04-24 15:54 -24.63315 157.89206 39153 ft 439 kts 243°
2026-04-24 15:54 -24.66698 157.83613 39160 ft 438 kts 243°
2026-04-24 15:55 -24.70065 157.78040 39153 ft 437 kts 243°
2026-04-24 15:55 -24.73407 157.72502 39153 ft 436 kts 243°
2026-04-24 15:56 -24.76763 157.66930 39160 ft 436 kts 243°
2026-04-24 15:56 -24.80119 157.61355 39157 ft 436 kts 243°
2026-04-24 15:57 -24.83474 157.55774 39158 ft 438 kts 243°
2026-04-24 15:57 -24.86838 157.50169 39158 ft 439 kts 243°
2026-04-24 15:58 -24.90210 157.44549 39157 ft 440 kts 243°
2026-04-24 15:58 -24.93560 157.38959 39157 ft 440 kts 243°
2026-04-24 15:59 -24.96931 157.33327 39162 ft 440 kts 243°
2026-04-24 15:59 -25.00297 157.27696 39159 ft 440 kts 243°
2026-04-24 16:00 -25.03665 157.22055 39162 ft 440 kts 243°
2026-04-24 16:00 -25.07009 157.16447 39169 ft 441 kts 242°
2026-04-24 16:01 -25.10385 157.10778 39168 ft 441 kts 242°
2026-04-24 16:01 -25.13758 157.05108 39164 ft 441 kts 242°
2026-04-24 16:02 -25.17101 156.99483 39169 ft 441 kts 242°
2026-04-24 16:02 -25.20469 156.93809 39169 ft 441 kts 242°
2026-04-24 16:03 -25.23836 156.88129 39173 ft 441 kts 242°
2026-04-24 16:03 -25.27176 156.82489 39188 ft 440 kts 242°
2026-04-24 16:04 -25.30540 156.76798 39172 ft 442 kts 242°
2026-04-24 16:04 -25.33890 156.71127 39172 ft 443 kts 242°
2026-04-24 16:05 -25.38941 156.62563 39173 ft 443 kts 242°
2026-04-24 16:06 -25.43986 156.53994 39174 ft 442 kts 242°
2026-04-24 16:07 -25.48990 156.45480 39208 ft 441 kts 242°
2026-04-24 16:07 -25.54021 156.36901 39178 ft 443 kts 242°
2026-04-24 16:08 -25.59062 156.28292 39180 ft 443 kts 242°
2026-04-24 16:09 -25.64071 156.19721 39184 ft 442 kts 241°
2026-04-24 16:09 -25.67415 156.13992 39184 ft 442 kts 241°
2026-04-24 16:11 -25.75740 155.99689 39186 ft 442 kts 242°
2026-04-24 16:11 -25.79069 155.93952 39189 ft 442 kts 242°
2026-04-24 16:12 -25.84036 155.85383 39192 ft 441 kts 241°
2026-04-24 16:13 -25.89012 155.76783 39192 ft 441 kts 241°
2026-04-24 16:14 -25.95649 155.65284 39193 ft 444 kts 241°
2026-04-24 16:14 -26.00630 155.56636 39192 ft 444 kts 241°
2026-04-24 16:15 -26.05592 155.48007 39192 ft 443 kts 241°
2026-04-24 16:16 -26.10554 155.39364 38997 ft 437 kts 241°
2026-04-24 16:17 -26.15464 155.30790 38228 ft 438 kts 240°
2026-04-24 16:17 -26.18694 155.25143 37384 ft 429 kts 240°
2026-04-24 16:18 -26.21872 155.19582 36139 ft 422 kts 240°
2026-04-24 16:18 -26.25014 155.14072 34772 ft 420 kts 239°
2026-04-24 16:18 -26.26578 155.11326 34030 ft 420 kts 239°
2026-04-24 16:19 -26.29716 155.05813 32517 ft 421 kts 239°
2026-04-24 16:19 -26.31287 155.03049 31744 ft 422 kts 238°
2026-04-24 16:20 -26.34428 154.97522 30096 ft 423 kts 238°
2026-04-24 16:20 -26.37580 154.91971 28297 ft 429 kts 236°
2026-04-24 16:20 -26.39184 154.89145 27359 ft 432 kts 237°
2026-04-24 16:21 -26.42417 154.83446 25388 ft 440 kts 236°
2026-04-24 16:21 -26.44068 154.80530 24522 ft 452 kts 236°
2026-04-24 16:21 -26.45788 154.77495 24275 ft 468 kts 236°
2026-04-24 16:22 -26.47536 154.74406 24047 ft 470 kts 236°
2026-04-24 16:22 -26.51034 154.68208 23544 ft 470 kts 236°
2026-04-24 16:22 -26.52776 154.65118 23279 ft 469 kts 236°
2026-04-24 16:23 -26.54494 154.62069 23012 ft 467 kts 236°
2026-04-24 16:23 -26.56222 154.59000 22735 ft 466 kts 236°
2026-04-24 16:23 -26.57954 154.55922 22466 ft 467 kts 236°
2026-04-24 16:24 -26.61398 154.49800 21958 ft 466 kts 235°
2026-04-24 16:24 -26.63123 154.46731 21696 ft 464 kts 236°
2026-04-24 16:24 -26.64841 154.43672 21439 ft 463 kts 235°
2026-04-24 16:24 -26.66553 154.40621 21190 ft 462 kts 235°
2026-04-24 16:25 -26.68258 154.37580 20939 ft 460 kts 235°
2026-04-24 16:25 -26.69941 154.34577 20687 ft 459 kts 235°
2026-04-24 16:25 -26.71637 154.31548 20441 ft 458 kts 235°
2026-04-24 16:26 -26.75010 154.25519 19941 ft 455 kts 235°
2026-04-24 16:26 -26.76685 154.22521 19707 ft 454 kts 235°
2026-04-24 16:26 -26.80035 154.16521 19229 ft 453 kts 235°
2026-04-24 16:27 -26.81683 154.13568 18993 ft 452 kts 235°
2026-04-24 16:27 -26.83365 154.10549 18764 ft 451 kts 235°
2026-04-24 16:27 -26.84997 154.07619 18534 ft 449 kts 235°
2026-04-24 16:27 -26.86632 154.04679 18027 ft 436 kts 235°
2026-04-24 16:28 -26.88203 154.01847 17275 ft 421 kts 235°
2026-04-24 16:28 -26.89737 153.99081 16521 ft 415 kts 235°
2026-04-24 16:28 -26.92696 153.93544 14969 ft 411 kts 239°
2026-04-24 16:29 -26.93975 153.90711 14261 ft 406 kts 240°
2026-04-24 16:29 -26.95218 153.87858 13466 ft 405 kts 241°
2026-04-24 16:29 -26.97619 153.82241 11942 ft 398 kts 241°
2026-04-24 16:30 -26.99939 153.76768 10828 ft 373 kts 242°
2026-04-24 16:30 -27.01009 153.74230 10610 ft 348 kts 242°
2026-04-24 16:30 -27.02008 153.71859 10413 ft 326 kts 241°
2026-04-24 16:31 -27.02948 153.69630 10256 ft 306 kts 240°
2026-04-24 16:31 -27.03838 153.67522 10111 ft 291 kts 241°
2026-04-24 16:31 -27.04688 153.65510 9970 ft 282 kts 240°
2026-04-24 16:31 -27.05470 153.63481 9679 ft 284 kts 246°
2026-04-24 16:32 -27.05869 153.62079 9429 ft 285 kts 250°
2026-04-24 16:32 -27.06564 153.59213 8981 ft 283 kts 252°
2026-04-24 16:32 -27.07063 153.57057 8677 ft 296 kts 251°
2026-04-24 16:32 -27.07587 153.54791 8390 ft 301 kts 251°
2026-04-24 16:33 -27.08113 153.52514 8087 ft 301 kts 251°
2026-04-24 16:33 -27.08637 153.50246 7785 ft 300 kts 252°
2026-04-24 16:33 -27.09161 153.47983 7488 ft 298 kts 251°
2026-04-24 16:33 -27.09664 153.45798 7302 ft 281 kts 251°
2026-04-24 16:34 -27.10140 153.43737 7047 ft 270 kts 251°
2026-04-24 16:34 -27.10606 153.41725 6765 ft 262 kts 251°
2026-04-24 16:34 -27.11059 153.39772 6499 ft 254 kts 251°
2026-04-24 16:34 -27.11499 153.37878 6237 ft 247 kts 251°
2026-04-24 16:35 -27.11926 153.36037 5989 ft 240 kts 251°
2026-04-24 16:35 -27.12437 153.34286 5724 ft 232 kts 243°
2026-04-24 16:35 -27.13076 153.32657 5515 ft 224 kts 239°
2026-04-24 16:35 -27.13735 153.31091 5296 ft 219 kts 238°
2026-04-24 16:36 -27.14380 153.29582 5084 ft 215 kts 238°
2026-04-24 16:36 -27.15026 153.28071 4865 ft 215 kts 237°
2026-04-24 16:36 -27.15686 153.26579 4663 ft 211 kts 232°
2026-04-24 16:36 -27.16627 153.25395 4387 ft 199 kts 208°
2026-04-24 16:37 -27.17799 153.24591 4176 ft 195 kts 200°
2026-04-24 16:37 -27.18594 153.24130 4052 ft 193 kts 198°
2026-04-24 16:37 -27.19804 153.23489 3889 ft 190 kts 195°
2026-04-24 16:37 -27.21384 153.22663 3591 ft 184 kts 198°
2026-04-24 16:38 -27.22514 153.21999 3343 ft 184 kts 200°
2026-04-24 16:38 -27.23651 153.21333 3037 ft 184 kts 199°
2026-04-24 16:38 -27.24793 153.20684 2785 ft 184 kts 198°
2026-04-24 16:38 -27.25937 153.20035 2542 ft 183 kts 199°
2026-04-24 16:39 -27.26689 153.19604 2389 ft 182 kts 199°
2026-04-24 16:39 -27.27810 153.18958 2151 ft 180 kts 198°
2026-04-24 16:39 -27.29290 153.18112 1832 ft 179 kts 199°
2026-04-24 16:39 -27.30392 153.17482 1592 ft 177 kts 199°
2026-04-24 16:40 -27.31121 153.17064 1435 ft 177 kts 199°
2026-04-24 16:40 -27.32207 153.16441 1201 ft 168 kts 199°
2026-04-24 16:40 -27.33169 153.15884 998 ft 144 kts 198°
2026-04-24 16:40 -27.34006 153.15405 814 ft 126 kts 197°
2026-04-24 16:41 -27.34750 153.14982 653 ft 114 kts 196°
2026-04-24 16:41 -27.35451 153.14584 497 ft 114 kts 202°
2026-04-24 16:41 -27.36164 153.14174 348 ft 115 kts 203°
2026-04-24 16:41 -27.36872 153.13760 136 ft 116 kts 205°
2026-04-24 16:42 -27.37582 153.13360 35 ft 111 kts 206°
2026-04-24 16:42 -27.38155 153.13037 22 ft 59 kts 207°
2026-04-24 16:42 -27.38397 153.12893 22 ft 20 kts 219°
2026-04-24 16:42 -27.38445 153.12784 23 ft 9 kts 274°
2026-04-24 16:43 -27.38386 153.12608 21 ft 32 kts 273°
2026-04-24 16:43 -27.38451 153.12462 21 ft 16 kts 263°
2026-04-24 16:43 -27.38421 153.12369 21 ft 8 kts 307°
2026-04-24 16:43 -27.38379 153.12335 21 ft 6 kts 321°
2026-04-24 16:44 -27.38345 153.12305 23 ft 7 kts 324°
2026-04-24 16:44 -27.38334 153.12296 21 ft 0 kts 321°